owner,sensor,date,latitude,longitude,vertical_datum,direction_of_sea_water_velocity,sea_water_speed,upward_sea_water_velocity,qcFlag 
TABS,ioos:station:wmo:42048:1,1995-09-01T00:00:00Z,27.9396,-96.8429,2.0,201.8132014,17.65405619,-99999.0,'11111222,11111222,99999999' 
TABS,ioos:station:wmo:42048:1,1995-09-01T00:30:00Z,27.9396,-96.8429,2.0,210.2017875,18.96427431,-99999.0,'11111222,11111222,99999999' 
TABS,ioos:station:wmo:42048:1,1995-09-01T01:00:00Z,27.9396,-96.8429,2.0,214.369172,20.58359784,-99999.0,'11111222,11111222,99999999' 
TABS,ioos:station:wmo:42048:1,1995-09-01T01:30:00Z,27.9396,-96.8429,2.0,213.9516065,17.600821,-99999.0,'11111222,11111222,99999999' 
TABS,ioos:station:wmo:42048:1,1995-09-01T02:00:00Z,27.9396,-96.8429,2.0,213.3861476,15.70100952,-99999.0,'11111222,11111222,99999999' 
TABS,ioos:station:wmo:42048:1,1995-09-01T02:30:00Z,27.9396,-96.8429,2.0,196.8087882,16.49475674,-99999.0,'11111222,11111222,99999999' 
TABS,ioos:station:wmo:42048:1,1995-09-01T03:00:00Z,27.9396,-96.8429,2.0,187.0046193,19.51566806,-99999.0,'11111222,11111222,99999999' 
TABS,ioos:station:wmo:42048:1,1995-09-01T03:30:00Z,27.9396,-96.8429,2.0,185.9138355,17.37246384,-99999.0,'11111222,11111222,99999999' 
TABS,ioos:station:wmo:42048:1,1995-09-01T04:00:00Z,27.9396,-96.8429,2.0,190.226938,18.47351618,-99999.0,'11111222,11111222,99999999' 
TABS,ioos:station:wmo:42048:1,1995-09-01T04:30:00Z,27.9396,-96.8429,2.0,174.4378001,12.27780518,-99999.0,'11111222,11111222,99999999' 
TABS,ioos:station:wmo:42048:1,1995-09-01T05:00:00Z,27.9396,-96.8429,2.0,173.651796,16.18926187,-99999.0,'11111222,11111222,99999999' 
TABS,ioos:station:wmo:42048:1,1995-09-01T05:30:00Z,27.9396,-96.8429,2.0,172.8621148,16.82035077,-99999.0,'11111222,11111222,99999999' 
TABS,ioos:station:wmo:42048:1,1995-09-01T06:00:00Z,27.9396,-96.8429,2.0,161.5557268,19.78637157,-99999.0,'11111222,11111222,99999999' 
TABS,ioos:station:wmo:42048:1,1995-09-01T06:30:00Z,27.9396,-96.8429,2.0,163.4688733,19.8922221,-99999.0,'11111222,11111222,99999999' 
TABS,ioos:station:wmo:42048:1,1995-09-01T07:00:00Z,27.9396,-96.8429,2.0,166.4021134,19.01292455,-99999.0,'11111222,11111222,99999999' 
TABS,ioos:station:wmo:42048:1,1995-09-01T07:30:00Z,27.9396,-96.8429,2.0,178.0450655,17.59023593,-99999.0,'11111222,11111222,99999999' 
TABS,ioos:station:wmo:42048:1,1995-09-01T08:00:00Z,27.9396,-96.8429,2.0,180.887106,19.37232304,-99999.0,'11111222,11111222,99999999' 
TABS,ioos:station:wmo:42048:1,1995-09-01T08:30:00Z,27.9396,-96.8429,2.0,179.9997895,16.99,-99999.0,'11111222,11111222,99999999' 
TABS,ioos:station:wmo:42048:1,1995-09-01T09:00:00Z,27.9396,-96.8429,2.0,190.6597963,20.92105399,-99999.0,'11111222,11111222,99999999' 
TABS,ioos:station:wmo:42048:1,1995-09-01T09:30:00Z,27.9396,-96.8429,2.0,210.6640493,18.70560611,-99999.0,'11111222,11111222,99999999' 
TABS,ioos:station:wmo:42048:1,1995-09-01T10:00:00Z,27.9396,-96.8429,2.0,252.7418155,23.08949978,-99999.0,'11111222,11111222,99999999' 
TABS,ioos:station:wmo:42048:1,1995-09-01T10:30:00Z,27.9396,-96.8429,2.0,240.5210049,15.74886028,-99999.0,'11111222,11111222,99999999' 
TABS,ioos:station:wmo:42048:1,1995-09-01T11:00:00Z,27.9396,-96.8429,2.0,273.154841,32.5292868,-99999.0,'11111222,11111222,99999999' 
TABS,ioos:station:wmo:42048:1,1995-09-01T11:30:00Z,27.9396,-96.8429,2.0,272.9507856,28.94837128,-99999.0,'11111222,11111222,99999999' 
TABS,ioos:station:wmo:42048:1,1995-09-01T12:00:00Z,27.9396,-96.8429,2.0,275.4658373,28.13791925,-99999.0,'11111222,11111222,99999999' 
TABS,ioos:station:wmo:42048:1,1995-09-01T12:30:00Z,27.9396,-96.8429,2.0,271.3573479,25.3371052,-99999.0,'11111222,11111222,99999999' 
TABS,ioos:station:wmo:42048:1,1995-09-01T13:00:00Z,27.9396,-96.8429,2.0,270.6559489,26.22171619,-99999.0,'11111222,11111222,99999999' 
TABS,ioos:station:wmo:42048:1,1995-09-01T13:30:00Z,27.9396,-96.8429,2.0,260.2186748,26.31246473,-99999.0,'11111222,11111222,99999999' 
TABS,ioos:station:wmo:42048:1,1995-09-01T14:00:00Z,27.9396,-96.8429,2.0,256.3119485,23.91930601,-99999.0,'11111222,11111222,99999999' 
TABS,ioos:station:wmo:42048:1,1995-09-01T14:30:00Z,27.9396,-96.8429,2.0,252.0581491,21.29556761,-99999.0,'11111222,11111222,99999999' 
TABS,ioos:station:wmo:42048:1,1995-09-01T15:00:00Z,27.9396,-96.8429,2.0,255.4130603,22.47438764,-99999.0,'11111222,11111222,99999999' 
TABS,ioos:station:wmo:42048:1,1995-09-01T15:30:00Z,27.9396,-96.8429,2.0,251.8264604,20.07118581,-99999.0,'11111222,11111222,99999999' 
TABS,ioos:station:wmo:42048:1,1995-09-01T16:00:00Z,27.9396,-96.8429,2.0,252.9709943,19.32733815,-99999.0,'11111222,11111222,99999999' 
TABS,ioos:station:wmo:42048:1,1995-09-01T16:30:00Z,27.9396,-96.8429,2.0,254.7568203,20.38721413,-99999.0,'11111222,11111222,99999999' 
TABS,ioos:station:wmo:42048:1,1995-09-01T17:00:00Z,27.9396,-96.8429,2.0,251.2900249,20.45068459,-99999.0,'11111222,11111222,99999999' 
TABS,ioos:station:wmo:42048:1,1995-09-01T17:30:00Z,27.9396,-96.8429,2.0,250.3003758,21.21139788,-99999.0,'11111222,11111222,99999999' 
TABS,ioos:station:wmo:42048:1,1995-09-01T18:00:00Z,27.9396,-96.8429,2.0,254.4782585,22.27225179,-99999.0,'11111222,11111222,99999999' 
TABS,ioos:station:wmo:42048:1,1995-09-01T18:30:00Z,27.9396,-96.8429,2.0,251.5555163,19.78637157,-99999.0,'11111222,11111222,99999999' 
TABS,ioos:station:wmo:42048:1,1995-09-01T19:00:00Z,27.9396,-96.8429,2.0,250.7991531,20.82861973,-99999.0,'11111222,11111222,99999999' 
TABS,ioos:station:wmo:42048:1,1995-09-01T19:30:00Z,27.9396,-96.8429,2.0,245.9603461,21.2095851,-99999.0,'11111222,11111222,99999999' 
TABS,ioos:station:wmo:42048:1,1995-09-01T20:00:00Z,27.9396,-96.8429,2.0,250.345801,22.15044243,-99999.0,'11111222,11111222,99999999' 
TABS,ioos:station:wmo:42048:1,1995-09-01T20:30:00Z,27.9396,-96.8429,2.0,245.6258939,20.93596188,-99999.0,'11111222,11111222,99999999' 
TABS,ioos:station:wmo:42048:1,1995-09-01T21:00:00Z,27.9396,-96.8429,2.0,248.7620085,23.02362265,-99999.0,'11111222,11111222,99999999' 
TABS,ioos:station:wmo:42048:1,1995-09-01T21:30:00Z,27.9396,-96.8429,2.0,255.9759333,22.11924954,-99999.0,'11111222,11111222,99999999' 
TABS,ioos:station:wmo:42048:1,1995-09-01T22:00:00Z,27.9396,-96.8429,2.0,253.0654523,21.49188684,-99999.0,'11111222,11111222,99999999' 
TABS,ioos:station:wmo:42048:1,1995-09-01T22:30:00Z,27.9396,-96.8429,2.0,248.6607332,20.47357809,-99999.0,'11111222,11111222,99999999' 
TABS,ioos:station:wmo:42048:1,1995-09-01T23:00:00Z,27.9396,-96.8429,2.0,253.4686628,19.8922221,-99999.0,'11111222,11111222,99999999' 
TABS,ioos:station:wmo:42048:1,1995-09-01T23:30:00Z,27.9396,-96.8429,2.0,250.7354162,19.88332216,-99999.0,'11111222,11111222,99999999' 
TABS,ioos:station:wmo:42048:1,1995-09-02T00:00:00Z,27.9396,-96.8429,2.0,245.843622,18.9383447,-99999.0,'11111222,11111222,99999999' 
TABS,ioos:station:wmo:42048:1,1995-09-02T00:30:00Z,27.9396,-96.8429,2.0,244.3648841,16.52672079,-99999.0,'11111222,11111222,99999999' 
TABS,ioos:station:wmo:42048:1,1995-09-02T01:00:00Z,27.9396,-96.8429,2.0,238.2417487,14.72456791,-99999.0,'11111222,11111222,99999999' 
TABS,ioos:station:wmo:42048:1,1995-09-02T01:30:00Z,27.9396,-96.8429,2.0,236.6496546,13.55156449,-99999.0,'11111222,11111222,99999999' 
TABS,ioos:station:wmo:42048:1,1995-09-02T02:00:00Z,27.9396,-96.8429,2.0,230.9103339,12.29122044,-99999.0,'11111222,11111222,99999999' 
TABS,ioos:station:wmo:42048:1,1995-09-02T02:30:00Z,27.9396,-96.8429,2.0,228.3882334,10.76684726,-99999.0,'11111222,11111222,99999999' 
TABS,ioos:station:wmo:42048:1,1995-09-02T03:00:00Z,27.9396,-96.8429,2.0,224.9996843,8.004448763,-99999.0,'11133222,11111222,99999999' 
TABS,ioos:station:wmo:42048:1,1995-09-02T03:30:00Z,27.9396,-96.8429,2.0,231.9571365,8.697821566,-99999.0,'11133222,11111222,99999999' 
TABS,ioos:station:wmo:42048:1,1995-09-02T04:00:00Z,27.9396,-96.8429,2.0,224.9996843,9.277240969,-99999.0,'11133222,11111222,99999999' 
TABS,ioos:station:wmo:42048:1,1995-09-02T04:30:00Z,27.9396,-96.8429,2.0,216.8567774,8.936000224,-99999.0,'11133222,11111222,99999999' 
TABS,ioos:station:wmo:42048:1,1995-09-02T05:00:00Z,27.9396,-96.8429,2.0,216.0218851,8.110887744,-99999.0,'11133222,11111222,99999999' 
TABS,ioos:station:wmo:42048:1,1995-09-02T05:30:00Z,27.9396,-96.8429,2.0,208.6224197,7.473285757,-99999.0,'11133222,11111222,99999999' 
TABS,ioos:station:wmo:42048:1,1995-09-02T06:00:00Z,27.9396,-96.8429,2.0,199.1592854,7.251682563,-99999.0,'11133222,11111222,99999999' 
TABS,ioos:station:wmo:42048:1,1995-09-02T06:30:00Z,27.9396,-96.8429,2.0,185.2257047,6.587381877,-99999.0,'11133222,11111222,99999999' 
TABS,ioos:station:wmo:42048:1,1995-09-02T07:00:00Z,27.9396,-96.8429,2.0,186.5508498,7.800935841,-99999.0,'11133222,11111222,99999999' 
TABS,ioos:station:wmo:42048:1,1995-09-02T07:30:00Z,27.9396,-96.8429,2.0,196.1741986,9.620810777,-99999.0,'11133222,11111222,99999999' 
TABS,ioos:station:wmo:42048:1,1995-09-02T08:00:00Z,27.9396,-96.8429,2.0,176.4010298,9.558849303,-99999.0,'11133222,11111222,99999999' 
TABS,ioos:station:wmo:42048:1,1995-09-02T08:30:00Z,27.9396,-96.8429,2.0,172.8895739,9.613932598,-99999.0,'11133222,11111222,99999999' 
TABS,ioos:station:wmo:42048:1,1995-09-02T09:00:00Z,27.9396,-96.8429,2.0,172.8895739,9.613932598,-99999.0,'11133222,11111222,99999999' 
TABS,ioos:station:wmo:42048:1,1995-09-02T09:30:00Z,27.9396,-96.8429,2.0,171.8793244,8.42447031,-99999.0,'11133222,11111222,99999999' 
TABS,ioos:station:wmo:42048:1,1995-09-02T10:00:00Z,27.9396,-96.8429,2.0,170.5374895,9.06331617,-99999.0,'11133222,11111222,99999999' 
TABS,ioos:station:wmo:42048:1,1995-09-02T10:30:00Z,27.9396,-96.8429,2.0,169.5391519,11.51132052,-99999.0,'11111222,11111222,99999999' 
TABS,ioos:station:wmo:42048:1,1995-09-02T11:00:00Z,27.9396,-96.8429,2.0,173.2129796,12.60835041,-99999.0,'11111222,11111222,99999999' 
TABS,ioos:station:wmo:42048:1,1995-09-02T11:30:00Z,27.9396,-96.8429,2.0,169.6795803,9.991646511,-99999.0,'11133222,11111222,99999999' 
TABS,ioos:station:wmo:42048:1,1995-09-02T12:00:00Z,27.9396,-96.8429,2.0,170.261561,10.58248553,-99999.0,'11111222,11111222,99999999' 
TABS,ioos:station:wmo:42048:1,1995-09-02T12:30:00Z,27.9396,-96.8429,2.0,171.3807083,9.94228344,-99999.0,'11133222,11111222,99999999' 
TABS,ioos:station:wmo:42048:1,1995-09-02T13:00:00Z,27.9396,-96.8429,2.0,169.5391519,11.51132052,-99999.0,'11111222,11111222,99999999' 
TABS,ioos:station:wmo:42048:1,1995-09-02T13:30:00Z,27.9396,-96.8429,2.0,169.7103516,13.32428234,-99999.0,'11111222,11111222,99999999' 
TABS,ioos:station:wmo:42048:1,1995-09-02T14:00:00Z,27.9396,-96.8429,2.0,172.5013309,11.41763986,-99999.0,'11111222,11111222,99999999' 
TABS,ioos:station:wmo:42048:1,1995-09-02T14:30:00Z,27.9396,-96.8429,2.0,169.6795803,9.991646511,-99999.0,'11133222,11111222,99999999' 
TABS,ioos:station:wmo:42048:1,1995-09-02T15:00:00Z,27.9396,-96.8429,2.0,169.0361126,9.411785165,-99999.0,'11133222,11111222,99999999' 
TABS,ioos:station:wmo:42048:1,1995-09-02T15:30:00Z,27.9396,-96.8429,2.0,171.0141888,11.46065007,-99999.0,'11111222,11111222,99999999' 
TABS,ioos:station:wmo:42048:1,1995-09-02T16:00:00Z,27.9396,-96.8429,2.0,173.6596126,13.49252386,-99999.0,'11111222,11111222,99999999' 
TABS,ioos:station:wmo:42048:1,1995-09-02T16:30:00Z,27.9396,-96.8429,2.0,174.0512889,14.37741632,-99999.0,'11111222,11111222,99999999' 
TABS,ioos:station:wmo:42048:1,1995-09-02T17:00:00Z,27.9396,-96.8429,2.0,179.9997895,12.81,-99999.0,'11111222,11111222,99999999' 
TABS,ioos:station:wmo:42048:1,1995-09-02T17:30:00Z,27.9396,-96.8429,2.0,179.9997895,15.79,-99999.0,'11111222,11111222,99999999' 
TABS,ioos:station:wmo:42048:1,1995-09-02T18:00:00Z,27.9396,-96.8429,2.0,183.1658065,16.11459587,-99999.0,'11111222,11111222,99999999' 
TABS,ioos:station:wmo:42048:1,1995-09-02T18:30:00Z,27.9396,-96.8429,2.0,192.9182706,14.67134622,-99999.0,'11111222,11111222,99999999' 
TABS,ioos:station:wmo:42048:1,1995-09-02T19:00:00Z,27.9396,-96.8429,2.0,193.3881313,12.86976301,-99999.0,'11111222,11111222,99999999' 
TABS,ioos:station:wmo:42048:1,1995-09-02T19:30:00Z,27.9396,-96.8429,2.0,193.510034,15.32404646,-99999.0,'11111222,11111222,99999999' 
TABS,ioos:station:wmo:42048:1,1995-09-02T20:00:00Z,27.9396,-96.8429,2.0,206.1578362,18.26019167,-99999.0,'11111222,11111222,99999999' 
TABS,ioos:station:wmo:42048:1,1995-09-02T20:30:00Z,27.9396,-96.8429,2.0,212.2187188,16.20536022,-99999.0,'11111222,11111222,99999999' 
TABS,ioos:station:wmo:42048:1,1995-09-02T21:00:00Z,27.9396,-96.8429,2.0,213.4057169,16.78266069,-99999.0,'11111222,11111222,99999999' 
TABS,ioos:station:wmo:42048:1,1995-09-02T21:30:00Z,27.9396,-96.8429,2.0,210.0244929,15.48840211,-99999.0,'11111222,11111222,99999999' 
TABS,ioos:station:wmo:42048:1,1995-09-02T22:00:00Z,27.9396,-96.8429,2.0,226.4413845,16.86276371,-99999.0,'11111222,11111222,99999999' 
TABS,ioos:station:wmo:42048:1,1995-09-02T22:30:00Z,27.9396,-96.8429,2.0,225.7116896,17.07087578,-99999.0,'11111222,11111222,99999999' 
TABS,ioos:station:wmo:42048:1,1995-09-02T23:00:00Z,27.9396,-96.8429,2.0,225.7895559,15.3881058,-99999.0,'11111222,11111222,99999999' 
TABS,ioos:station:wmo:42048:1,1995-09-02T23:30:00Z,27.9396,-96.8429,2.0,224.1874186,14.96388319,-99999.0,'11111222,11111222,99999999' 
TABS,ioos:station:wmo:42048:1,1995-09-03T00:00:00Z,27.9396,-96.8429,2.0,208.1348544,14.52647927,-99999.0,'11111222,11111222,99999999' 
TABS,ioos:station:wmo:42048:1,1995-09-03T00:30:00Z,27.9396,-96.8429,2.0,207.7067333,13.46380333,-99999.0,'11111222,11111222,99999999' 
TABS,ioos:station:wmo:42048:1,1995-09-03T01:00:00Z,27.9396,-96.8429,2.0,202.7052974,13.88616938,-99999.0,'11111222,11111222,99999999' 
TABS,ioos:station:wmo:42048:1,1995-09-03T01:30:00Z,27.9396,-96.8429,2.0,189.0576565,13.27554895,-99999.0,'11111222,11111222,99999999' 
TABS,ioos:station:wmo:42048:1,1995-09-03T02:00:00Z,27.9396,-96.8429,2.0,185.307104,12.86515449,-99999.0,'11111222,11111222,99999999' 
TABS,ioos:station:wmo:42048:1,1995-09-03T02:30:00Z,27.9396,-96.8429,2.0,181.1304778,15.20296024,-99999.0,'11111222,11111222,99999999' 
TABS,ioos:station:wmo:42048:1,1995-09-03T03:00:00Z,27.9396,-96.8429,2.0,179.9997895,14.01,-99999.0,'11111222,11111222,99999999' 
TABS,ioos:station:wmo:42048:1,1995-09-03T03:30:00Z,27.9396,-96.8429,2.0,172.3967681,13.52893935,-99999.0,'11111222,11111222,99999999' 
TABS,ioos:station:wmo:42048:1,1995-09-03T04:00:00Z,27.9396,-96.8429,2.0,178.7979593,14.30314651,-99999.0,'11111222,11111222,99999999' 
TABS,ioos:station:wmo:42048:1,1995-09-03T04:30:00Z,27.9396,-96.8429,2.0,173.010069,14.70932017,-99999.0,'11111222,11111222,99999999' 
TABS,ioos:station:wmo:42048:1,1995-09-03T05:00:00Z,27.9396,-96.8429,2.0,172.0451133,12.93445785,-99999.0,'11111222,11111222,99999999' 
TABS,ioos:station:wmo:42048:1,1995-09-03T05:30:00Z,27.9396,-96.8429,2.0,166.2950193,12.57810797,-99999.0,'11111222,11111222,99999999' 
TABS,ioos:station:wmo:42048:1,1995-09-03T06:00:00Z,27.9396,-96.8429,2.0,153.4348005,13.99778554,-99999.0,'11111222,11111222,99999999' 
TABS,ioos:station:wmo:42048:1,1995-09-03T06:30:00Z,27.9396,-96.8429,2.0,150.269765,14.41779803,-99999.0,'11111222,11111222,99999999' 
TABS,ioos:station:wmo:42048:1,1995-09-03T07:00:00Z,27.9396,-96.8429,2.0,146.933572,15.28566976,-99999.0,'11111222,11111222,99999999' 
TABS,ioos:station:wmo:42048:1,1995-09-03T07:30:00Z,27.9396,-96.8429,2.0,142.0211686,15.50290295,-99999.0,'11111222,11111222,99999999' 
TABS,ioos:station:wmo:42048:1,1995-09-03T08:00:00Z,27.9396,-96.8429,2.0,136.6014061,15.18044136,-99999.0,'11111222,11111222,99999999' 
TABS,ioos:station:wmo:42048:1,1995-09-03T08:30:00Z,27.9396,-96.8429,2.0,130.856887,14.58329524,-99999.0,'11111222,11111222,99999999' 
TABS,ioos:station:wmo:42048:1,1995-09-03T09:00:00Z,27.9396,-96.8429,2.0,128.664928,17.17442867,-99999.0,'11111222,11111222,99999999' 
TABS,ioos:station:wmo:42048:1,1995-09-03T09:30:00Z,27.9396,-96.8429,2.0,131.3796455,16.68566151,-99999.0,'11111222,11111222,99999999' 
TABS,ioos:station:wmo:42048:1,1995-09-03T10:00:00Z,27.9396,-96.8429,2.0,133.7463608,19.39350922,-99999.0,'11111222,11111222,99999999' 
TABS,ioos:station:wmo:42048:1,1995-09-03T10:30:00Z,27.9396,-96.8429,2.0,130.6141245,19.23305488,-99999.0,'11111222,11111222,99999999' 
TABS,ioos:station:wmo:42048:1,1995-09-03T11:00:00Z,27.9396,-96.8429,2.0,121.1401226,16.70747138,-99999.0,'11111222,11111222,99999999' 
TABS,ioos:station:wmo:42048:1,1995-09-03T11:30:00Z,27.9396,-96.8429,2.0,123.4140174,17.85045938,-99999.0,'11111222,11111222,99999999' 
TABS,ioos:station:wmo:42048:1,1995-09-03T12:00:00Z,27.9396,-96.8429,2.0,125.0550181,17.11458442,-99999.0,'11111222,11111222,99999999' 
TABS,ioos:station:wmo:42048:1,1995-09-03T12:30:00Z,27.9396,-96.8429,2.0,124.2103628,18.01740547,-99999.0,'11111222,11111222,99999999' 
TABS,ioos:station:wmo:42048:1,1995-09-03T13:00:00Z,27.9396,-96.8429,2.0,122.7368847,19.84159772,-99999.0,'11111222,11111222,99999999' 
TABS,ioos:station:wmo:42048:1,1995-09-03T13:30:00Z,27.9396,-96.8429,2.0,131.2852601,16.26226614,-99999.0,'11111222,11111222,99999999' 
TABS,ioos:station:wmo:42048:1,1995-09-03T14:00:00Z,27.9396,-96.8429,2.0,131.0809367,15.4156187,-99999.0,'11111222,11111222,99999999' 
TABS,ioos:station:wmo:42048:1,1995-09-03T14:30:00Z,27.9396,-96.8429,2.0,131.9107456,15.614394,-99999.0,'11111222,11111222,99999999' 
TABS,ioos:station:wmo:42048:1,1995-09-03T15:00:00Z,27.9396,-96.8429,2.0,134.9998948,14.32598339,-99999.0,'11111222,11111222,99999999' 
TABS,ioos:station:wmo:42048:1,1995-09-03T15:30:00Z,27.9396,-96.8429,2.0,131.9107456,15.614394,-99999.0,'11111222,11111222,99999999' 
TABS,ioos:station:wmo:42048:1,1995-09-03T16:00:00Z,27.9396,-96.8429,2.0,135.7300461,16.64664531,-99999.0,'11111222,11111222,99999999' 
TABS,ioos:station:wmo:42048:1,1995-09-03T16:30:00Z,27.9396,-96.8429,2.0,135.8576385,13.69819331,-99999.0,'11111222,11111222,99999999' 
TABS,ioos:station:wmo:42048:1,1995-09-03T17:00:00Z,27.9396,-96.8429,2.0,131.0626788,12.25479906,-99999.0,'11111222,11111222,99999999' 
TABS,ioos:station:wmo:42048:1,1995-09-03T17:30:00Z,27.9396,-96.8429,2.0,140.9745341,14.19804564,-99999.0,'11111222,11111222,99999999' 
TABS,ioos:station:wmo:42048:1,1995-09-03T18:00:00Z,27.9396,-96.8429,2.0,144.6267695,11.33186657,-99999.0,'11111222,11111222,99999999' 
TABS,ioos:station:wmo:42048:1,1995-09-03T18:30:00Z,27.9396,-96.8429,2.0,134.9998948,8.8529769,-99999.0,'11133222,11111222,99999999' 
TABS,ioos:station:wmo:42048:1,1995-09-03T19:00:00Z,27.9396,-96.8429,2.0,143.8583745,9.5967755,-99999.0,'11133222,11111222,99999999' 
TABS,ioos:station:wmo:42048:1,1995-09-03T19:30:00Z,27.9396,-96.8429,2.0,143.1080005,10.42800077,-99999.0,'11111222,11111222,99999999' 
TABS,ioos:station:wmo:42048:1,1995-09-03T20:00:00Z,27.9396,-96.8429,2.0,156.7680961,9.075902159,-99999.0,'11133222,11111222,99999999' 
TABS,ioos:station:wmo:42048:1,1995-09-03T20:30:00Z,27.9396,-96.8429,2.0,164.5989164,8.961807853,-99999.0,'11133222,11111222,99999999' 
TABS,ioos:station:wmo:42048:1,1995-09-03T21:00:00Z,27.9396,-96.8429,2.0,176.4010298,9.558849303,-99999.0,'11133222,11111222,99999999' 
TABS,ioos:station:wmo:42048:1,1995-09-03T21:30:00Z,27.9396,-96.8429,2.0,183.8393769,8.960111606,-99999.0,'11133222,11111222,99999999' 
TABS,ioos:station:wmo:42048:1,1995-09-03T22:00:00Z,27.9396,-96.8429,2.0,189.7843944,8.767536712,-99999.0,'11133222,11111222,99999999' 
TABS,ioos:station:wmo:42048:1,1995-09-03T22:30:00Z,27.9396,-96.8429,2.0,204.128136,9.467127336,-99999.0,'11133222,11111222,99999999' 
TABS,ioos:station:wmo:42048:1,1995-09-03T23:00:00Z,27.9396,-96.8429,2.0,205.8158586,10.26442887,-99999.0,'11111222,11111222,99999999' 
TABS,ioos:station:wmo:42048:1,1995-09-03T23:30:00Z,27.9396,-96.8429,2.0,212.3380081,10.58107745,-99999.0,'11111222,11111222,99999999' 
TABS,ioos:station:wmo:42048:1,1995-09-04T00:00:00Z,27.9396,-96.8429,2.0,217.6989131,8.290868471,-99999.0,'11133222,11111222,99999999' 
TABS,ioos:station:wmo:42048:1,1995-09-04T00:30:00Z,27.9396,-96.8429,2.0,209.5579036,10.27757267,-99999.0,'11111222,11111222,99999999' 
TABS,ioos:station:wmo:42048:1,1995-09-04T01:00:00Z,27.9396,-96.8429,2.0,207.3040362,10.39858163,-99999.0,'11111222,11111222,99999999' 
TABS,ioos:station:wmo:42048:1,1995-09-04T01:30:00Z,27.9396,-96.8429,2.0,214.5981955,10.49624695,-99999.0,'11111222,11111222,99999999' 
TABS,ioos:station:wmo:42048:1,1995-09-04T02:00:00Z,27.9396,-96.8429,2.0,210.9917399,6.952553488,-99999.0,'11133222,11111222,99999999' 
TABS,ioos:station:wmo:42048:1,1995-09-04T02:30:00Z,27.9396,-96.8429,2.0,202.6252913,7.746153884,-99999.0,'11133222,11111222,99999999' 
TABS,ioos:station:wmo:42048:1,1995-09-04T03:00:00Z,27.9396,-96.8429,2.0,206.5647786,7.334302966,-99999.0,'11133222,11111222,99999999' 
TABS,ioos:station:wmo:42048:1,1995-09-04T03:30:00Z,27.9396,-96.8429,2.0,194.0360002,6.143427382,-99999.0,'11133222,11111222,99999999' 
TABS,ioos:station:wmo:42048:1,1995-09-04T04:00:00Z,27.9396,-96.8429,2.0,179.9997895,5.96,-99999.0,'11133222,11111222,99999999' 
TABS,ioos:station:wmo:42048:1,1995-09-04T04:30:00Z,27.9396,-96.8429,2.0,171.0635753,5.72954623,-99999.0,'11133222,11111222,99999999' 
TABS,ioos:station:wmo:42048:1,1995-09-04T05:00:00Z,27.9396,-96.8429,2.0,173.6126875,5.393477542,-99999.0,'11133222,11111222,99999999' 
TABS,ioos:station:wmo:42048:1,1995-09-04T05:30:00Z,27.9396,-96.8429,2.0,159.4525747,7.635764533,-99999.0,'11133222,11111222,99999999' 
TABS,ioos:station:wmo:42048:1,1995-09-04T06:00:00Z,27.9396,-96.8429,2.0,162.3280788,6.884889251,-99999.0,'11133222,11111222,99999999' 
TABS,ioos:station:wmo:42048:1,1995-09-04T06:30:00Z,27.9396,-96.8429,2.0,147.6861505,6.697163579,-99999.0,'11133222,11111222,99999999' 
TABS,ioos:station:wmo:42048:1,1995-09-04T07:00:00Z,27.9396,-96.8429,2.0,139.6130305,7.824736417,-99999.0,'11133222,11111222,99999999' 
TABS,ioos:station:wmo:42048:1,1995-09-04T07:30:00Z,27.9396,-96.8429,2.0,141.9573469,8.697821566,-99999.0,'11133222,11111222,99999999' 
TABS,ioos:station:wmo:42048:1,1995-09-04T08:00:00Z,27.9396,-96.8429,2.0,137.5766787,9.279552791,-99999.0,'11133222,11111222,99999999' 
TABS,ioos:station:wmo:42048:1,1995-09-04T08:30:00Z,27.9396,-96.8429,2.0,141.3400717,9.540655114,-99999.0,'11133222,11111222,99999999' 
TABS,ioos:station:wmo:42048:1,1995-09-04T09:00:00Z,27.9396,-96.8429,2.0,145.3316364,9.422956012,-99999.0,'11133222,11111222,99999999' 
TABS,ioos:station:wmo:42048:1,1995-09-04T09:30:00Z,27.9396,-96.8429,2.0,146.3426632,9.671199512,-99999.0,'11133222,11111222,99999999' 
TABS,ioos:station:wmo:42048:1,1995-09-04T10:00:00Z,27.9396,-96.8429,2.0,150.4416755,10.27757267,-99999.0,'11111222,11111222,99999999' 
TABS,ioos:station:wmo:42048:1,1995-09-04T10:30:00Z,27.9396,-96.8429,2.0,149.0549589,10.42368457,-99999.0,'11111222,11111222,99999999' 
TABS,ioos:station:wmo:42048:1,1995-09-04T11:00:00Z,27.9396,-96.8429,2.0,150.0246208,8.946697715,-99999.0,'11133222,11111222,99999999' 
TABS,ioos:station:wmo:42048:1,1995-09-04T11:30:00Z,27.9396,-96.8429,2.0,144.9992495,10.91380777,-99999.0,'11111222,11111222,99999999' 
TABS,ioos:station:wmo:42048:1,1995-09-04T12:00:00Z,27.9396,-96.8429,2.0,144.9992495,10.91380777,-99999.0,'11111222,11111222,99999999' 
TABS,ioos:station:wmo:42048:1,1995-09-04T12:30:00Z,27.9396,-96.8429,2.0,146.8074144,9.261069053,-99999.0,'11133222,11111222,99999999' 
TABS,ioos:station:wmo:42048:1,1995-09-04T13:00:00Z,27.9396,-96.8429,2.0,153.4348005,10.66604425,-99999.0,'11111222,11111222,99999999' 
TABS,ioos:station:wmo:42048:1,1995-09-04T13:30:00Z,27.9396,-96.8429,2.0,146.7713562,10.32885279,-99999.0,'11111222,11111222,99999999' 
TABS,ioos:station:wmo:42048:1,1995-09-04T14:00:00Z,27.9396,-96.8429,2.0,142.7919546,10.84818879,-99999.0,'11111222,11111222,99999999' 
TABS,ioos:station:wmo:42048:1,1995-09-04T14:30:00Z,27.9396,-96.8429,2.0,149.5293725,11.7532336,-99999.0,'11111222,11111222,99999999' 
TABS,ioos:station:wmo:42048:1,1995-09-04T15:00:00Z,27.9396,-96.8429,2.0,150.0670212,11.34303751,-99999.0,'11111222,11111222,99999999' 
TABS,ioos:station:wmo:42048:1,1995-09-04T15:30:00Z,27.9396,-96.8429,2.0,147.1769744,10.99541723,-99999.0,'11111222,11111222,99999999' 
TABS,ioos:station:wmo:42048:1,1995-09-04T16:00:00Z,27.9396,-96.8429,2.0,138.4619597,13.93422047,-99999.0,'11111222,11111222,99999999' 